Location: Kershaw
(34.5481°N, 80.5823°W)
Time: 15:20:00
(UTC+00:00)

Courier 1B Rocket - Pass Details

Date: 04 October 2022
Orbit: 920 x 1202 km, 28.2° (Epoch: 08 December)

Event Time Altitude Azimuth Distance (km) Brightness Sun altitude
Rises 00:38:02 0° 249° (WSW) 3,772 9.1 -20.2°
Reaches altitude 10° 00:40:55 10° 243° (WSW) 2,776 8.1 -20.8°
Maximum altitude 00:47:14 45° 172° (S) 1,283 5.4 -22.1°
Enters shadow 00:48:49 38° 136° (SE) 1,414 5.4 -22.4°
Drops below altitude 10° 00:53:13 10° 102° (ESE) 2,634 - -23.3°
Sets 00:55:53 0° 96° (E) 3,561 - -23.9°
